Weather History for KOXC - September, 2011

Change the Weather History Date:

Thursday, September 15, 2011

  Actual Average Record
Temperature  
Mean Temperature 60 °F -  
Max Temperature 71 °F 69 °F 80 °F (2005)
Min Temperature 48 °F 52 °F 41 °F (2013)
Degree Days  
Heating Degree Days 6    
Growing Degree Days 10 (Base 50)    
Moisture  
Dew Point 57 °F    
Average Humidity 80    
Maximum Humidity 94    
Minimum Humidity 58    
Precipitation  
Precipitation 0.00 in - - ()
Sea Level Pressure  
Sea Level Pressure 29.96 in    
Wind  
Wind Speed 6 mph (WNW)    
Max Wind Speed 18 mph    
Max Gust Speed 28 mph    
Visibility 5 miles    
Events Fog    
Averages and records for this station are not official NWS values.
T = Trace of Precipitation, MM = Missing Value Source: NWS Daily Summary

Daily Weather History Graph

Daily Weather History Graph

Search for Another Location

Airport or City:

Trip Planner

Search our weather history database for the weather conditions in past years. The results will help you decide how hot, cold, wet, or windy it might be!

Date:

Astronomy

Sep. 15, 2011 Rise Set
Actual Time 6:32 AM EDT 7:02 PM EDT
Civil Twilight 6:04 AM EDT 7:30 PM EDT
Nautical Twilight 5:31 AM EDT 8:02 PM EDT
Astronomical Twilight 4:58 AM EDT 8:36 PM EDT
Moon 8:12 PM EDT (9/15) 9:41 AM EDT (9/15)
Length of Visible Light 13h 25m
Length of Day
12h 29m
Waning Gibbous, 91% of the Moon is Illuminated
Sep 15
Waning Gibbous
Sep 20
Last Quarter
Sep 27
New
Oct 3
First Quarter
Oct 11
Full

Hourly Weather History & Observations

Time (EDT) Temp. Dew Point Humidity Pressure Visibility Wind Dir Wind Speed Gust Speed Precip Events Conditions
12:15 AM 69.8 °F 66.2 °F 88% 29.97 in 5.0 mi South 3.5 mph - N/A   Mostly Cloudy
12:35 AM 68.0 °F 64.4 °F 88% 29.97 in 4.0 mi South 4.6 mph - N/A   Mostly Cloudy
12:55 AM 68.0 °F 64.4 °F 88% 29.96 in 3.0 mi South 3.5 mph - N/A   Scattered Clouds
1:15 AM 68.0 °F 64.4 °F 88% 29.96 in 3.0 mi Calm Calm - N/A   Clear
1:35 AM 68.0 °F 64.4 °F 88% 29.95 in 4.0 mi Calm Calm - N/A   Clear
1:55 AM 68.0 °F 64.4 °F 88% 29.95 in 4.0 mi Calm Calm - N/A   Clear
2:15 AM 66.2 °F 64.4 °F 94% 29.93 in 3.0 mi SSE 5.8 mph - N/A   Clear
2:35 AM 66.2 °F 64.4 °F 94% 29.92 in 5.0 mi SSE 4.6 mph - N/A   Clear
2:55 AM 66.2 °F 64.4 °F 94% 29.91 in 4.0 mi SSE 4.6 mph - N/A   Clear
3:15 AM 66.2 °F 64.4 °F 94% 29.91 in 2.0 mi SSE 6.9 mph - N/A   Mostly Cloudy
3:35 AM 68.0 °F 64.4 °F 88% 29.91 in 0.5 mi SSE 3.5 mph - N/A   Overcast
4:15 AM 66.2 °F 64.4 °F 94% 29.92 in 0.5 mi WSW 3.5 mph - N/A   Overcast
4:35 AM 66.2 °F 64.4 °F 94% 29.92 in 1.2 mi Calm Calm - N/A   Overcast
4:55 AM 66.2 °F 64.4 °F 94% 29.92 in 1.2 mi SW 3.5 mph - N/A   Overcast
5:15 AM 66.2 °F 64.4 °F 94% 29.91 in 1.5 mi SE 3.5 mph - N/A   Overcast
5:35 AM 66.2 °F 64.4 °F 94% 29.91 in 1.2 mi South 6.9 mph - N/A   Overcast
5:45 AM 66.2 °F 64.4 °F 94% 29.91 in 0.5 mi SSW 5.8 mph - N/A Fog Fog
7:45 AM 66.2 °F 64.4 °F 94% 29.91 in 1.0 mi SSW 5.8 mph - N/A   Mostly Cloudy
8:29 AM 68.0 °F 64.4 °F 88% 29.91 in 1.2 mi SSW 4.6 mph - N/A   Mostly Cloudy
8:45 AM 68.0 °F 64.4 °F 88% 29.91 in 1.5 mi West 4.6 mph - N/A   Mostly Cloudy
9:18 AM 69.8 °F 64.4 °F 83% 29.91 in 3.0 mi West 4.6 mph - N/A   Mostly Cloudy
9:45 AM 69.8 °F 64.4 °F 83% 29.92 in 6.0 mi WNW 6.9 mph - N/A   Mostly Cloudy
10:02 AM 71.6 °F 64.4 °F 78% 29.93 in 6.0 mi NW 11.5 mph - N/A   Mostly Cloudy
10:16 AM 71.6 °F 64.4 °F 78% 29.93 in 8.0 mi North 10.4 mph - N/A   Mostly Cloudy
10:45 AM 71.6 °F 62.6 °F 73% 29.92 in 8.0 mi WNW 6.9 mph - N/A   Mostly Cloudy
11:45 AM 71.6 °F 60.8 °F 69% 29.92 in 8.0 mi NW 5.8 mph - N/A   Mostly Cloudy
1:45 PM 66.2 °F 57.2 °F 73% 29.90 in 10.0 mi North 6.9 mph - N/A   Overcast
3:45 PM 64.4 °F 57.2 °F 77% 29.89 in 10.0 mi NNW 9.2 mph 17.3 mph N/A   Mostly Cloudy
4:45 PM 62.6 °F 55.4 °F 77% 29.90 in 10.0 mi NNW 11.5 mph - N/A   Overcast
5:45 PM 55.4 °F 48.2 °F 77% 29.97 in 7.0 mi NNW 13.8 mph 24.2 mph N/A   Overcast
7:45 PM 51.8 °F 41.0 °F 67% 30.01 in 7.0 mi North 15.0 mph 27.6 mph N/A   Overcast
8:45 PM 51.8 °F 39.2 °F 62% 30.05 in 7.0 mi North 15.0 mph 25.3 mph N/A   Overcast
9:35 PM 51.8 °F 37.4 °F 58% 30.06 in 10.0 mi NNW 18.4 mph 25.3 mph N/A   Mostly Cloudy
9:55 PM 51.8 °F 37.4 °F 58% 30.07 in 10.0 mi NNW 11.5 mph 21.9 mph N/A   Partly Cloudy
10:15 PM 51.8 °F 37.4 °F 58% 30.07 in 10.0 mi North 13.8 mph - N/A   Partly Cloudy
10:35 PM 50.0 °F 37.4 °F 62% 30.07 in 10.0 mi NNW 12.7 mph - N/A   Clear
10:55 PM 50.0 °F 37.4 °F 62% 30.06 in 10.0 mi NNW 16.1 mph 23.0 mph N/A   Clear
11:15 PM 50.0 °F 37.4 °F 62% 30.07 in 10.0 mi NNW 12.7 mph 19.6 mph N/A   Clear
11:35 PM 48.2 °F 37.4 °F 66% 30.08 in 10.0 mi NNW 9.2 mph - N/A   Clear
11:55 PM 48.2 °F 37.4 °F 66% 30.08 in 10.0 mi NNW 5.8 mph - N/A   Clear